When you browse on this site, cookies collect data to enhance your experience and personalize the content and advertising you see.
Visit our Privacy Policy to learn more. By continuing to use the site, you agree to this use of cookies and data.
  • In Sweden
  • List of Countries
  • For 7 days
  • Water Temperature
  • Weather Map
  • Weather Widgets
  • user-avatar
    Login

    Hourly Weather Agres

    Today, 22 November, Friday

    Time Temperature Precipitation Wind Pressure Humidity
    00:00 +9°C° 0 mm 2 mps 713 mmHg 80%
    01:00 +10°C° 0 mm 1 mps 712 mmHg 80%
    02:00 +10°C° 0 mm 1 mps 712 mmHg 81%
    03:00 +10°C° 0 mm 1 mps 711 mmHg 81%
    04:00 +11°C° 0 mm 1 mps 711 mmHg 79%
    05:00 +11°C° 0 mm 1 mps 711 mmHg 77%
    06:00 +11°C° 0 mm 1 mps 711 mmHg 76%
    07:00 +12°C° 0.1 mm 2 mps 711 mmHg 74%
    08:00 +12°C° 0.1 mm 2 mps 711 mmHg 73%
    09:00 +13°C° 0.1 mm 2 mps 711 mmHg 71%
    10:00 +13°C° 0.1 mm 2 mps 710 mmHg 71%
    11:00 +14°C° 0.1 mm 2 mps 710 mmHg 72%
    12:00 +14°C° 0.1 mm 2 mps 709 mmHg 72%
    13:00 +13°C° 0 mm 3 mps 709 mmHg 74%
    14:00 +13°C° 0 mm 4 mps 708 mmHg 75%
    15:00 +13°C° 0 mm 5 mps 707 mmHg 77%
    16:00 +13°C° 0.2 mm 5 mps 706 mmHg 82%
    17:00 +12°C° 0.2 mm 5 mps 706 mmHg 86%
    18:00 +12°C° 0.2 mm 5 mps 705 mmHg 91%
    19:00 +12°C° 0.3 mm 5 mps 705 mmHg 90%
    20:00 +12°C° 0.3 mm 5 mps 705 mmHg 90%
    21:00 +12°C° 0.3 mm 4 mps 705 mmHg 90%
    22:00 +10°C° 0.1 mm 5 mps 704 mmHg 87%
    23:00 +10°C° 0.1 mm 5 mps 704 mmHg 84%

    Tomorrow, 23 November, Saturday

    Time Temperature Precipitation Wind Pressure Humidity
    00:00 +9°C° 0.1 mm 5 mps 704 mmHg 80%
    01:00 +9°C° 0 mm 6 mps 703 mmHg 77%
    02:00 +9°C° 0 mm 7 mps 703 mmHg 74%
    03:00 +7°C° 0 mm 8 mps 703 mmHg 71%
    04:00 +7°C° 0 mm 10 mps 703 mmHg 71%
    05:00 +7°C° 0 mm 11 mps 703 mmHg 71%
    06:00 +7°C° 0 mm 13 mps 703 mmHg 70%
    07:00 +7°C° 0 mm 12 mps 704 mmHg 67%
    08:00 +7°C° 0 mm 12 mps 705 mmHg 64%
    09:00 +7°C° 0 mm 12 mps 706 mmHg 61%
    10:00 +8°C° 0 mm 12 mps 707 mmHg 57%
    11:00 +9°C° 0 mm 12 mps 707 mmHg 53%
    12:00 +9°C° 0 mm 12 mps 707 mmHg 49%
    13:00 +9°C° 0 mm 12 mps 708 mmHg 48%
    14:00 +9°C° 0 mm 13 mps 708 mmHg 47%
    15:00 +9°C° 0 mm 13 mps 709 mmHg 46%
    16:00 +9°C° 0 mm 12 mps 709 mmHg 48%
    17:00 +8°C° 0 mm 10 mps 710 mmHg 50%
    18:00 +7°C° 0 mm 9 mps 711 mmHg 52%
    19:00 +7°C° 0 mm 9 mps 712 mmHg 54%
    20:00 +7°C° 0 mm 9 mps 712 mmHg 56%
    21:00 +7°C° 0 mm 10 mps 713 mmHg 58%
    22:00 +6°C° 0 mm 9 mps 713 mmHg 59%
    23:00 +6°C° 0 mm 8 mps 714 mmHg 61%

    Day after tomorrow, 24 November, Sunday

    Time Temperature Precipitation Wind Pressure Humidity
    00:00 +6°C° 0 mm 8 mps 714 mmHg 62%
    01:00 +5°C° 0 mm 8 mps 714 mmHg 63%
    02:00 +5°C° 0 mm 8 mps 714 mmHg 64%
    03:00 +5°C° 0 mm 8 mps 715 mmHg 65%
    04:00 +5°C° 0 mm 8 mps 715 mmHg 65%
    05:00 +5°C° 0 mm 8 mps 715 mmHg 66%
    06:00 +4°C° 0 mm 8 mps 715 mmHg 66%
    07:00 +5°C° 0 mm 8 mps 716 mmHg 62%
    08:00 +6°C° 0 mm 8 mps 716 mmHg 59%
    09:00 +7°C° 0 mm 8 mps 717 mmHg 55%
    10:00 +8°C° 0 mm 9 mps 717 mmHg 51%
    11:00 +10°C° 0 mm 9 mps 717 mmHg 46%
    12:00 +12°C° 0 mm 9 mps 718 mmHg 42%
    13:00 +12°C° 0 mm 9 mps 718 mmHg 43%
    14:00 +12°C° 0 mm 8 mps 718 mmHg 43%
    15:00 +12°C° 0 mm 8 mps 717 mmHg 44%
    16:00 +11°C° 0 mm 8 mps 718 mmHg 49%
    17:00 +9°C° 0 mm 7 mps 718 mmHg 55%
    18:00 +8°C° 0 mm 6 mps 718 mmHg 60%
    19:00 +8°C° 0 mm 6 mps 719 mmHg 61%
    20:00 +8°C° 0 mm 5 mps 719 mmHg 62%
    21:00 +7°C° 0 mm 5 mps 719 mmHg 63%
    22:00 +7°C° 0 mm 4 mps 720 mmHg 64%
    23:00 +7°C° 0 mm 4 mps 720 mmHg 66%

    25 November, Monday

    Time Temperature Precipitation Wind Pressure Humidity
    00:00 +6°C° 0 mm 4 mps 720 mmHg 67%
    01:00 +6°C° 0 mm 4 mps 720 mmHg 70%
    02:00 +7°C° 0 mm 3 mps 720 mmHg 73%
    03:00 +7°C° 0 mm 3 mps 720 mmHg 75%
    04:00 +7°C° 0 mm 3 mps 720 mmHg 77%
    05:00 +7°C° 0 mm 3 mps 720 mmHg 78%
    06:00 +7°C° 0 mm 3 mps 720 mmHg 80%
    07:00 +8°C° 0 mm 3 mps 720 mmHg 75%
    08:00 +10°C° 0 mm 3 mps 721 mmHg 71%
    09:00 +11°C° 0 mm 3 mps 721 mmHg 66%
    10:00 +12°C° 0 mm 3 mps 721 mmHg 63%
    11:00 +14°C° 0 mm 3 mps 721 mmHg 59%
    12:00 +15°C° 0 mm 4 mps 721 mmHg 55%
    13:00 +17°C° 0 mm 3 mps 721 mmHg 56%
    14:00 +17°C° 0 mm 3 mps 721 mmHg 57%
    15:00 +17°C° 0 mm 3 mps 720 mmHg 57%
    16:00 +14°C° 0 mm 3 mps 720 mmHg 64%
    17:00 +14°C° 0 mm 2 mps 720 mmHg 71%
    18:00 +12°C° 0 mm 2 mps 720 mmHg 78%
    19:00 +12°C° 0 mm 2 mps 720 mmHg 79%
    20:00 +12°C° 0 mm 2 mps 720 mmHg 80%
    21:00 +12°C° 0 mm 2 mps 721 mmHg 82%
    22:00 +12°C° 0 mm 2 mps 721 mmHg 82%
    23:00 +10°C° 0 mm 3 mps 720 mmHg 83%

    26 November, Tuesday

    Time Temperature Precipitation Wind Pressure Humidity
    00:00 +10°C° 0 mm 3 mps 720 mmHg 84%
    01:00 +10°C° 0 mm 3 mps 720 mmHg 84%
    02:00 +10°C° 0 mm 3 mps 720 mmHg 85%
    03:00 +10°C° 0 mm 3 mps 720 mmHg 85%
    04:00 +10°C° 0 mm 3 mps 720 mmHg 85%
    05:00 +10°C° 0 mm 3 mps 719 mmHg 86%
    06:00 +10°C° 0 mm 3 mps 719 mmHg 86%
    07:00 +11°C° 0 mm 3 mps 720 mmHg 82%
    08:00 +12°C° 0 mm 3 mps 720 mmHg 77%
    09:00 +14°C° 0 mm 3 mps 720 mmHg 72%
    10:00 +16°C° 0 mm 2 mps 720 mmHg 67%
    11:00 +18°C° 0 mm 2 mps 720 mmHg 61%
    12:00 +19°C° 0 mm 2 mps 720 mmHg 56%
    13:00 +19°C° 0 mm 2 mps 720 mmHg 55%
    14:00 +19°C° 0 mm 2 mps 719 mmHg 54%
    15:00 +19°C° 0 mm 2 mps 719 mmHg 54%
    16:00 +18°C° 0 mm 2 mps 719 mmHg 60%
    17:00 +16°C° 0 mm 2 mps 719 mmHg 66%
    18:00 +14°C° 0 mm 2 mps 719 mmHg 73%
    19:00 +14°C° 0 mm 2 mps 719 mmHg 74%
    20:00 +13°C° 0 mm 3 mps 719 mmHg 75%
    21:00 +12°C° 0 mm 3 mps 719 mmHg 76%
    22:00 +12°C° 0 mm 3 mps 718 mmHg 77%
    23:00 +12°C° 0 mm 3 mps 718 mmHg 78%

    27 November, Wednesday

    Time Temperature Precipitation Wind Pressure Humidity
    00:00 +12°C° 0 mm 3 mps 718 mmHg 78%
    01:00 +12°C° 0 mm 3 mps 718 mmHg 79%
    02:00 +12°C° 0 mm 3 mps 718 mmHg 79%
    03:00 +11°C° 0 mm 3 mps 718 mmHg 80%
    04:00 +11°C° 0 mm 3 mps 718 mmHg 81%
    05:00 +11°C° 0 mm 3 mps 718 mmHg 81%
    06:00 +11°C° 0 mm 3 mps 718 mmHg 82%
    07:00 +12°C° 0 mm 3 mps 718 mmHg 78%
    08:00 +13°C° 0 mm 3 mps 719 mmHg 74%
    09:00 +16°C° 0 mm 3 mps 719 mmHg 70%
    10:00 +17°C° 0 mm 3 mps 719 mmHg 65%
    11:00 +18°C° 0 mm 4 mps 719 mmHg 60%
    12:00 +19°C° 0 mm 4 mps 719 mmHg 55%
    13:00 +19°C° 0 mm 4 mps 719 mmHg 55%
    14:00 +19°C° 0 mm 4 mps 719 mmHg 55%
    15:00 +19°C° 0 mm 4 mps 719 mmHg 55%
    16:00 +18°C° 0 mm 4 mps 719 mmHg 61%
    17:00 +16°C° 0 mm 3 mps 719 mmHg 67%
    18:00 +14°C° 0 mm 3 mps 719 mmHg 74%
    19:00 +14°C° 0 mm 3 mps 719 mmHg 74%
    20:00 +13°C° 0 mm 3 mps 719 mmHg 75%
    21:00 +14°C° 0 mm 2 mps 720 mmHg 76%
    22:00 +14°C° 0 mm 2 mps 720 mmHg 77%
    23:00 +14°C° 0 mm 2 mps 720 mmHg 78%
    Show more